Regional Weather Roundup
Issued by NWS

Home | Current Version | Previous Version | Text Only | Print | Product List | Glossary On
Versions: 1 2 3 4 5 6 7 8 9 10 11 12 13 14 15 16 17 18 19 20 21 22 23 24 25 26 27 28 29 30 31 32 33 34 35 36 37 38 39 40 41 42 43 44 45 46 47 48 49 50
000
ASUS42 KFFC 271803
RWRGA
WEATHER ROUNDUP FOR GEORGIA
NATIONAL WEATHER SERVICE PEACHTREE CITY GA
200 PM EDT FRI MAR 27 2015

NOTE: "FAIR" INDICATES FEW OR NO CLOUDS BELOW 12,000 FEET WITH NO
SIGNIFICANT WEATHER AND/OR OBSTRUCTIONS TO VISIBILITY.

* = USE WITH CAUTION. THE STATIONS MARKED WITH AN ASTERISK MAY NOT
REPORT WEATHER SUCH AS PRECIPITATION, FOG, OR THUNDER AND ARE NOT
QUALITY CONTROLLED BY NWS.

THE REMARK "TC" DENOTES TEMPERATURE READING IN DEGREES CELSIUS.

GAZ001>058-271900-
NORTH GEORGIA

CITY           SKY/WX    TMP DP  RH WIND       PRES   REMARKS
ATLANTA        MOSUNNY   55  36  48 NW23      29.85R
6HR MIN TEMP:  46; 6HR MAX TEMP:  55;

ATHENS         PTSUNNY   58  39  49 NW14G25   29.77S
6HR MIN TEMP:  51; 6HR MAX TEMP:  62;

CHAMBLEE       MOSUNNY   54  37  52 NW18      29.85R
6HR MIN TEMP:  44; 6HR MAX TEMP:  54;

PEACHTREE CITY SUNNY     56  36  47 NW18G25   29.87S
6HR MIN TEMP:  47; 6HR MAX TEMP:  56;

ROME           MOSUNNY   56  34  43 N16       29.89F
6HR MIN TEMP:  45; 6HR MAX TEMP:  56;

WEST ATLANTA   PTSUNNY   54  36  50 W14G21    29.86S
6HR MIN TEMP:  45; 6HR MAX TEMP:  54;

GAINESVILLE    MOSUNNY   53  37  54 W17G25    29.80F
6HR MIN TEMP:  47; 6HR MAX TEMP:  53;

CARTERSVILLE   PTSUNNY   54  35  48 VRB7      29.89F
6HR MIN TEMP:  44; 6HR MAX TEMP:  54;



CITY           SKY/WX    TMP DP  RH WIND       PRES   REMARKS
DALTON*        MOSUNNY   52  34  50 N12G21    29.90F
MARIETTA       PTSUNNY   53  36  52 NW14G29   29.85S
KENNESAW*      MOSUNNY   52  34  50 N13G24    29.87F
$$

GAZ059>098-102>109-271900-
CENTRAL GEORGIA

CITY           SKY/WX    TMP DP  RH WIND       PRES   REMARKS
AUGUSTA-BUSH   PTSUNNY   65  50  58 W16       29.71F
6HR MIN TEMP:  64; 6HR MAX TEMP:  71;

AUGUSTA-DANIEL PTSUNNY   65  49  56 W9G20     29.72F
6HR MIN TEMP:  61; 6HR MAX TEMP:  68; 6HR PCP:  0.12;

COLUMBUS       MOSUNNY   57  37  47 N12G17    29.89F
6HR MIN TEMP:  50; 6HR MAX TEMP:  57;

MACON          MOSUNNY   59  42  53 W15G23    29.82F
6HR MIN TEMP:  53; 6HR MAX TEMP:  59;

ROBINS AFB     MOSUNNY   60  43  53 NW17G25   29.82S


CITY           SKY/WX    TMP DP  RH WIND       PRES   REMARKS
LAGRANGE*      MOSUNNY   57  44  61 NW15G21   29.88F
SYLVANIA*      CLOUDY    68  63  84 W9        29.71S
MILLEDGEVILLE* MOSUNNY   59  46  63 W14G22    29.81R
$$

GAZ099>101-110>166-271900-
SOUTH GEORGIA

CITY           SKY/WX    TMP DP  RH WIND       PRES   REMARKS
SAVANNAH       CLOUDY    72  59  63 SW14      29.68F
6HR MIN TEMP:  63; 6HR MAX TEMP:  74;

VALDOSTA       CLOUDY    69  61  75 NW9G17    29.79F
6HR MIN TEMP:  64; 6HR MAX TEMP:  70; 6HR PCP: TRACE;

ALMA           CLOUDY    64  59  83 W14G26    29.76R
6HR MIN TEMP:  63; 6HR MAX TEMP:  71; 6HR PCP:  0.01;

ST SIMONS      PTSUNNY   74  61  63 SW13G22   29.73F
6HR MIN TEMP:  65; 6HR MAX TEMP:  74; 6HR PCP: TRACE;

FT STEWART     CLOUDY    73  61  67 SW13G21   29.67F
ALBANY         CLOUDY    56  47  71 NW18G25   29.89R
HUNTER AFB     CLOUDY    73  63  71 SW16G22   29.67F
MOODY AFB      CLOUDY    66  59  77 W12       29.79R
BRUNSWICK      CLOUDY    73  61  64 SW12G20   29.73F


CITY           SKY/WX    TMP DP  RH WIND       PRES   REMARKS
BAINBRIDGE*    CLOUDY    59  50  72 NW17G26   29.90S
MOULTRIE*      CLOUDY    59  55  88 NW14G23   29.85S
VIDALIA*       CLOUDY    63  55  77 W14G24    29.76S
WAYCROSS*      CLOUDY    75  64  69 W16G25    29.74F
DOUGLAS*       CLOUDY    64  55  72 NW17G23   29.80R
$$


USA.gov is the U.S. government's official web portal to all federal, state and local government web resources and services.